Location: Debolt
(55.2626°N, 118.0981°W)
Time: 10:59:38
(UTC+00:00)

CUTE-I - Visible Passes

Search period start: 01 December 2023 00:00
Search period end: 11 December 2023 00:00
Orbit: 808 x 822 km, 98.7° (Epoch: 29 November)

Date Brightness Start Highest point End Pass type
(mag) Time Alt. Az. Time Alt. Az. Time Alt. Az.
01 Dec ? 01:20:20 10° S 01:25:35 64° WSW 01:30:55 10° NNW visible
01 Dec ? 03:04:25 10° WSW 03:06:41 13° W 03:08:58 10° WNW visible
01 Dec ? 13:29:26 10° NNE 13:34:10 30° E 13:38:51 10° SSE visible
01 Dec ? 15:09:14 10° N 15:14:28 57° WNW 15:19:43 10° SW visible
02 Dec ? 00:58:03 10° SSE 01:03:22 89° WSW 01:08:44 10° NNW visible
02 Dec ? 02:40:30 10° SW 02:44:07 18° W 02:47:48 10° NW visible
02 Dec ? 13:07:38 10° NE 13:11:43 22° E 13:15:47 10° SE visible
02 Dec ? 14:46:58 10° NNE 14:52:20 80° WNW 14:57:43 10° SSW visible
03 Dec ? 00:35:58 10° SSE 00:41:12 66° ENE 00:46:30 10° NNW visible
03 Dec ? 02:17:15 10° SSW 02:21:39 26° W 02:26:06 10° NW visible
03 Dec ? 12:46:10 10° NE 12:49:12 15° E 12:52:12 10° ESE visible
03 Dec ? 14:24:45 10° NNE 14:30:08 74° ESE 14:35:30 10° S visible
04 Dec ? 00:14:03 10° SE 00:19:07 47° ENE 00:24:12 10° N visible
04 Dec ? 01:54:21 10° SSW 01:59:15 37° W 02:04:12 10° NNW visible
04 Dec ? 14:02:38 10° NNE 14:07:52 52° E 14:13:06 10° S visible
05 Dec ? 01:31:44 10° S 01:36:55 53° W 01:42:09 10° NNW visible
05 Dec ? 03:17:35 10° W 03:18:11 10° W 03:18:46 10° WNW visible
05 Dec ? 13:40:35 10° NNE 13:45:32 36° E 13:50:28 10° SSE visible
06 Dec ? 01:09:21 10° SSE 01:14:39 76° WSW 01:20:01 10° NNW visible
06 Dec ? 02:52:31 10° WSW 02:55:34 15° W 02:58:40 10° NW visible
06 Dec ? 13:18:41 10° NE 13:23:08 26° E 13:27:33 10° SSE visible
06 Dec ? 14:58:16 10° NNE 15:03:36 68° WNW 15:08:55 10° SSW visible
07 Dec ? 00:47:09 10° SSE 00:52:27 78° ENE 00:57:48 10° NNW visible
07 Dec ? 02:28:59 10° SW 02:33:03 22° W 02:37:10 10° NW visible
07 Dec ? 12:57:00 10° NE 13:00:38 18° E 13:04:16 10° SE visible
07 Dec ? 14:36:01 10° NNE 14:41:25 87° ESE 14:46:48 10° SSW visible
08 Dec ? 00:25:08 10° SE 00:30:19 55° ENE 00:35:32 10° N visible
08 Dec ? 02:05:55 10° SSW 02:10:36 31° W 02:15:20 10° NNW visible
08 Dec ? 12:35:52 10° ENE 12:38:05 12° E 12:40:16 10° ESE visible
08 Dec ? 14:13:51 10° NNE 14:19:11 62° ESE 14:24:30 10° S visible
09 Dec ? 00:03:19 10° SE 00:08:14 40° ENE 00:13:12 10° N visible
09 Dec ? 01:43:10 10° S 01:48:14 44° W 01:53:21 10° NNW visible
09 Dec ? 13:51:45 10° NNE 13:56:53 43° E 14:01:59 10° S visible
10 Dec ? 01:20:39 10° S 01:25:55 63° WSW 01:31:15 10° NNW visible
10 Dec ? 03:04:45 10° WSW 03:07:01 13° W 03:09:17 10° WNW visible
10 Dec ? 13:29:46 10° NNE 13:34:30 31° E 13:39:13 10° SSE visible
10 Dec ? 15:09:32 10° N 15:14:48 57° WNW 15:20:03 10° SW visible
